855  
ASUS43 KFGF 240310  
RWRFGF  
PRAIRIE TO PINES WEATHER ROUNDUP  
NATIONAL WEATHER SERVICE EASTERN NORTH DAKOTA/GRAND FORKS ND  
900 PM CST TUE JAN 23 2018  
 
**SATELLITE DATA USED TO AUGMENT SKY COVER AT AUTOMATED STATIONS**  
***** WEATHER ACROSS EASTERN NORTH DAKOTA *****  
 
CITY SKY/WX TMP DP RH WIND PRES REMARKS
 
GRAND FORKS CLOUDY 23 20 88 W5 30.14S WCI 17  
GRAND FRKS AFB CLOUDY 24 18 79 NW7 30.14R WCI 15  
DEVILS LAKE CLOUDY 23 19 85 W7 30.13S WCI 15  
FARGO CLOUDY 24 21 88 NW14 30.16R WCI 12  
WAHPETON ARPT CLOUDY 25 21 86 CALM 30.16R  

 
 
***** WEATHER ACROSS CENTRAL AND WESTERN NORTH DAKOTA *****  
 
CITY SKY/WX TMP DP RH WIND PRES REMARKS
 
BISMARCK FAIR 17 15 92 E3 30.15F  
MINOT FAIR 18 16 92 S7 30.09F FOG WCI 9  
JAMESTOWN CLOUDY 20 18 92 NW8 30.15R WCI 10  
MINOT AFB FAIR 14 11 90 S6 30.08F WCI 5  
GARRISON N/A 9 6 88 CALM 30.11S  
WILLISTON FAIR 15 14 95 SW3 30.09S  
DICKINSON FAIR 22 18 85 W12 30.08S WCI 10  
HETTINGER FAIR 19 15 84 NW6 30.14S WCI 11  

 
 
***** OTHER AIRPORT OBSERVATIONS IN OUR AREA *****  
 
CITY SKY/WX TMP DP RH WIND PRES REMARKS
 
WALHALLA FAIR 25 25 100 NW8 30.11S WCI 16  
GRAFTON AIRPOR CLOUDY 23 19 86 W5 30.15S WCI 17  
VALLEY CITY AR FLURRIES 19 21 100 NW15 30.16S WCI 5  
CANDO CLOUDY 23 23 100 W10 30.13S WCI 12  
CAVALIER APRT N/A 25 19 80 W8 30.11S WCI 16  
GWINNER N/A 19 18 93 NW15 30.16R WCI 5  
SHEYENNE NWR N/A 20 19 94 NW12 29.95S WCI 8  
ROLLA CLOUDY 21 21 100 SW9 30.07F WCI 11  
***** THE ABOVE OBSERVATIONS ARE NON NWS ARE NOT QUALITY  
CONTROLLED AND MAY MIS-REPORT RAIN FOR SNOW...  

 
 
***** WEATHER ACROSS NORTHERN MINNESOTA *****  
 
CITY SKY/WX TMP DP RH WIND PRES REMARKS
 
FLAG ISLAND CLOUDY 14 7 73 SE5 30.10R WCI 6  
WARROAD FLURRIES 16 12 86 CALM 30.11S  
ROSEAU LGT SNOW 19 16 86 S7 30.11S WCI 10  
HALLOCK CLOUDY 21 19 93 SW7 30.12R WCI 13  
THF RVR FALLS MIX PCPN 20 19 96 SW6 30.13R FOG WCI 12  
BAUDETTE CLOUDY 15 5 64 CALM 30.10S  
WASKISH CLOUDY 7 1 78 CALM 30.12S  
CROOKSTON FAIR 21 21 100 NW9 30.15R WCI 11  
STEPHEN NDAWN N/A 21 19 93 SW3 N/A  
GREENBUSH NDAW N/A 19 18 93 SW6 N/A WCI 11  

 
***** WEATHER ACROSS CENTRAL AND WEST MINNESOTA *****  
 
CITY SKY/WX TMP DP RH WIND PRES REMARKS
 
FOSSTON CLOUDY 18 16 93 S3 30.13R FOG  
BEMIDJI CLOUDY 16 13 88 W3 30.11S  
PARK RAPIDS CLOUDY 16 12 84 W6 30.11R WCI 7  
ELBOW LAKE CLOUDY 22 20 93 NW3 30.15S  
WADENA CLOUDY 18 16 93 W7 30.13R WCI 8  
DETROIT LAKES CLOUDY 21 21 100 CALM 30.13R FOG  
MOORHEAD CLOUDY 23 19 86 NW13 30.16R WCI 11  
FERGUS FALLS CLOUDY 21 19 93 CALM 30.15R  
MORRIS MN CLOUDY 25 19 80 W6 30.14S WCI 18  
STAPLES CLOUDY 18 14 86 W7 30.13S WCI 8  

 
***** WEATHER ELSEWHERE ACROSS MINNESOTA *****  
 
CITY SKY/WX TMP DP RH WIND PRES REMARKS
 
DULUTH FAIR 15 3 59 N6 30.11S WCI 6  
INTRNTL FALLS CLOUDY 7 -4 60 SE3 30.12F  
ELY NOT AVBL  
CLOQUET FAIR 9 1 72 CALM 30.12R  
WHEATON CLOUDY 25 19 80 CALM 30.18R  
BRAINERD FAIR 14 6 70 CALM 30.13S  
HIBBING FAIR -2 -4 91 CALM 30.12R  
ALEXANDRIA CLOUDY 22 32 100 MISG 30.14R  
SAINT CLOUD FAIR 18 12 77 CALM 30.14F  
MINNEAPOLIS MOCLDY 21 15 78 SE5 30.18R WCI 15  

 
 
***** WEATHER ACROSS SOUTH DAKOTA *****  
 
CITY SKY/WX TMP DP RH WIND PRES REMARKS
 
SIOUX FALLS CLOUDY 24 23 96 NW6 30.16S WCI 17  
BROOKINGS CLOUDY 22 21 96 NW6 30.15R FOG WCI 14  
WATERTOWN FAIR 18 17 96 CALM 30.12S  
HURON FAIR 19 17 92 CALM 30.17R FOG  
SISSETON N/A 17 15 92 CALM 30.15R  
ABERDEEN FAIR 20 17 88 N3 30.17R  
MITCHELL FAIR 24 22 91 W7 30.18R WCI 16  
PIERRE FAIR 29 23 78 NW13 30.17S WCI 19  
MOBRIDGE FAIR 21 17 84 NW5 30.12F WCI 15  
RAPID CITY FAIR 23 16 74 SW3 30.18F  

 
 
***** SOME WEATHER IN NEARBY STATES *****  
 
CITY SKY/WX TMP DP RH WIND PRES REMARKS
 
GLASGOW MT FAIR 12 8 84 SE9 30.06F WCI 0  
GREAT FALLS MT FAIR 31 14 49 S10 29.98F WCI 22  
CHEYENNE WY FAIR 22 13 68 SW8 30.22R WCI 12  
SCOTTSBLUFF NE FAIR 20 14 77 N7 30.26S WCI 11  
OMAHA NE MOCLDY 24 20 84 SE6 30.22S WCI 17  
DES MOINES IA CLOUDY 26 20 77 W7 30.22R WCI 18  
DAVENPORT IA CLOUDY 26 20 77 NW10 30.20R WCI 16  
CHICAGO IL CLOUDY 29 21 72 NW12 30.12R WCI 19  
EAU CLAIRE WI CLOUDY 16 13 88 CALM 30.16R  
LA CROSSE WI CLOUDY 24 17 74 CALM 30.18S  

 
 
***** SOME NATIONAL WEATHER *****  
 
CITY SKY/WX TMP DP RH WIND PRES REMARKS
 
LA GUARDIA NY FAIR 47 28 47 W14G26 29.71R  
RALEIGH NC FAIR 52 27 38 NW7G17 29.94R  
ATLANTA GA FAIR 45 32 60 NW17G24 30.14R  
NEW ORLEANS LA FAIR 52 36 54 N9 30.24R  
OKLAHOMA CITY FAIR 36 16 44 CALM 30.32R  
ALBUQUERQUE NM FAIR 38 12 34 N7 30.32R  
SALT LAKE CITY FAIR 34 25 69 SE6 30.31S  
LOS ANGELES CA FAIR 60 51 72 W9 30.12S  
BOISE ID FAIR 41 27 57 SE8 30.15F  
SEATTLE WA LGT RAIN 44 42 93 E14 29.74F  

 
 
*** WEATHER ACROSS MANITOBA...SASKATCHEWAN AND ONTARIO ***  
***ONTARIO***  
 
CITY SKY/WX TMP DP RH WIND PRES REMARKS
 
GERALDTON CLEAR -6 -13 71 N6 30.17R WCI -18  
THUNDER BAY PTCLDY 0 -9 65 W5 30.22S WCI -10  
SIOUX LOOKOUT CLOUDY 3 -8 60 SE6 30.16R WCI -8  
TORONTO CLOUDY 27 18 69 W24G30 29.76R WCI 12  
BIG TROUT LK CLEAR -18 -22 83 E5 30.30F WCI -31  
PICKLE LAKE NOT AVBL  
DRYDEN CLOUDY 5 -2 72 E7 30.12F WCI -7  
KENORA CLOUDY 12 0 57 SE5 30.09R WCI 4  

 
*** MANITOBA***  
 
CITY SKY/WX TMP DP RH WIND PRES REMARKS
 
BRANDON CLOUDY 25 21 86 W9 30.06S WCI 15  
DAUPHIN FLURRIES 25 21 86 W12 30.04R WCI 14  
ISLAND LAKE LGT SNOW 3 -2 78 SE15 30.14S DRFTSNOWWCI -15  
PILOT MOUND N/A 21 19 93 SW5 N/A WCI 15  
THE PAS FLURRIES 0 -8 71 N5 30.10S WCI -10  
THOMPSON MOCLDY -13 -18 77 NE7 30.19S WCI -29  
WINNIPEG LGT SNOW 21 19 93 S8 30.09S FOG WCI 12  
CHURCHILL MOCLDY -20 -27 69 W6 30.44R WCI -36  

 
***SASKATCHEWAN***  
 
CITY SKY/WX TMP DP RH WIND PRES REMARKS
 
ESTEVAN CLEAR 14 10 85 SW8 30.05S WCI 3  
KINDERSLEY PTCLDY 23 18 80 SE10 29.94F WCI 12  
LLOYDMINSTER MOCLDY 9 7 92 SE10 29.92F FOG WCI -6  
PRINCE ALBERT FLURRIES 12 7 79 E5 30.08F WCI 4  
REGINA CLEAR 12 10 92 E5 30.01F WCI 4  
YORKTON CLOUDY 23 21 93 NW13 30.02S WCI 11  
N. BATTLEFORD FOG 18 16 93 SE3 30.03F VSB 1/2  
LA RONGE CLEAR -15 -18 84 CALM 30.11F  
SASKATOON CLOUDY 21 19 93 N3 30.04F FOG  
SWIFT CURRENT CLEAR 21 14 73 SW12 29.95F WCI 9  

 
NOTE: THESE ARE AUTOMATED STATIONS WITH LIMITED QUALITY CONTROL  
"FAIR" INDICATES FEW OR NO CLOUDS BELOW 12,000 FEET WITH NO  
SIGNIFICANT WEATHER AND/OR S TO VISIBILITY
.  
SKY/WX - SKY CONDITION AND SIGNIFICANT WEATHER.  
TMP - AIR TEMPERATURE. DP - DEWPOINT TEMPERATURE.  
RH - RELATIVE HUMIDITY. PRES - PRESSURE.  
HX - HEAT INDEX. WCI - WIND CHILL INDEX.  
$  
 
 
CLICK HERE TO GO TO PREVIOUS BULLETINS.

The Nexlab ND Page
The Nexlab MN Page Main Text Page